Tracking 25963 objects as of 13-Aug-2022
HD Live streaming from Space Station
objects crossing your sky now

STARLINK-4254

Track STARLINK-4254 now!
10-day predictions
STARLINK-4254 is classified as:


NORAD ID: 52998
Int'l Code: 2022-076N
Perigee: 355.1 km
Apogee: 358.7 km
Inclination: 53.2 °
Period: 91.5 minutes
Semi major axis: 6727 km
RCS: Unknown
Launch date: July 7, 2022
Source: United States (US)
Launch site: AIR FORCE EASTERN TEST RANGE (AFETR)
aabbcc
Your satellite tracking list
Your tracking list is empty




NASA's NSSDC Master Catalog

Two Line Element Set (TLE):
1 52998U 22076N   22224.83335648 -.00003886  00000-0 -23254-4 0  9999
2 52998  53.2173 200.0043 0002642  30.2210 221.3965 15.73206343  6218
Source of the keplerian elements: AFSPC